Flight Track Log - Related Links

Times and Time Zones

All times are in EDT time to prevent confusion due to time zone crossing. See the SWA127 flight status page for this flight to view local times or setup timezone preferences in your user account.

Time Position Orientation Groundspeed Altitude Reporting Facility
EDT Latitude Longitude Course Direction KTS MPH feet Rate Location/Type
12:11 29.6333 -95.2653 149° Southeast 139 160 800  Level Houston Center
12:11 29.6164 -95.2536 149° Southeast 171 197 1,400 2,087 Climbing Houston Center
12:12 29.5678 -95.2289 156° South 195 224 4,000 2,613 Climbing Houston Center
12:13 29.5031 -95.1994 158° South 224 258 6,800 2,613 Climbing Houston Center
12:14 29.4381 -95.2333 204° Southwest 260 299 9,400 1,887 Climbing Houston Center
12:15 29.3642 -95.2725 205° Southwest 293 337 10,700 1,597 Climbing Houston Center
12:16 29.2753 -95.3217 206° Southwest 353 406 12,700 2,129 Climbing Houston Center
12:17 29.1814 -95.3728 205° Southwest 371 427 15,100 2,274 Climbing Houston Center
12:18 29.0936 -95.4442 215° Southwest 384 442 17,400 2,323 Climbing Houston Center
12:19 28.9872 -95.5314 216° Southwest 391 450 19,900 2,112 Climbing Houston Center
12:20 28.8958 -95.6056 215° Southwest 402 463 21,800 1,632 Climbing Houston Center
12:21 28.8022 -95.6822 216° Southwest 411 473 23,300 1,403 Climbing Houston Center
12:22 28.7061 -95.7608 216° Southwest 423 487 24,700 1,452 Climbing Houston Center
12:24 28.6089 -95.8397 215° Southwest 427 491 26,300 1,694 Climbing Houston Center
12:25 28.5131 -95.9175 216° Southwest 425 489 28,200 1,632 Climbing Houston Center
12:26 28.4094 -96.0011 215° Southwest 420 483 29,700 1,488 Climbing Houston Center
12:27 28.3131 -96.0794 216° Southwest 425 489 31,300 1,355 Climbing Houston Center
12:28 28.1975 -96.1728 215° Southwest 425 489 32,500 1,161 Climbing Houston Center
12:29 28.0989 -96.2517 215° Southwest 431 496 33,700 435 Climbing Houston Center
12:30 28.0011 -96.3283 215° Southwest 429 494 33,400 -532 Descending Houston Center
12:31 27.9050 -96.4050 215° Southwest 424 488 32,600 -677 Descending Houston Center
12:32 27.8086 -96.4814 215° Southwest 422 486 32,000 -290 Descending Houston Center
12:33 27.7100 -96.5606 215° Southwest 430 495 32,000 -48 Level Houston Center
12:34 27.5858 -96.6592 215° Southwest 448 516 31,900  Descending Houston Center
12:35 27.4836 -96.7394 215° Southwest 448 516 32,000 -968 Climbing Houston Center
12:36 27.3811 -96.8206 215° Southwest 440 506 29,900 -2,710 Descending Houston Center
12:37 27.2822 -96.8978 215° Southwest 434 499 26,400 -2,903 Descending Houston Center
12:38 27.1828 -96.9756 215° Southwest 435 501 23,900 -1,403 Descending Houston Center
12:39 27.1003 -97.0417 216° Southwest 377 434 23,500 -2,328 Descending Houston Center
12:40 27.0183 -97.1047 214° Southwest 353 406 19,400 -4,467 Descending Houston Center
12:41 26.9603 -97.1503 215° Southwest 395 455 16,800 -3,000 Descending Houston Center
12:41 26.9122 -97.1872 214° Southwest 382 440 15,900 -2,149 Descending Houston Center
12:42 26.8656 -97.2247 216° Southwest 368 423 14,400 -3,000 Descending Houston Center
12:42 26.8267 -97.2553 215° Southwest 372 428 12,800 -3,344 Descending Houston Center
12:43 26.7800 -97.2903 214° Southwest 367 422 11,000 -2,667 Descending Houston Center
12:43 26.7414 -97.3194 214° Southwest 370 426 10,000 -1,100 Descending Houston Center
12:44 26.7028 -97.3525 217° Southwest 334 384 9,900 -387 Descending Houston Center
12:44 26.6681 -97.3767 212° Southwest 290 334 9,600 -1,082 Descending Houston Center
12:45 26.6406 -97.3986 216° Southwest 271 312 8,800 -1,645 Descending Houston Center
12:45 26.6083 -97.4242 215° Southwest 266 306 7,900 -1,574 Descending Houston Center
12:46 26.5803 -97.4442 213° Southwest 263 303 7,200 -1,645 Descending Houston Center
12:46 26.5442 -97.4722 215° Southwest 258 297 6,200 -1,600 Descending Houston Center
12:47 26.5203 -97.4922 217° Southwest 258 297 5,600 -1,548 Descending Houston Center
12:47 26.4944 -97.5269 230° Southwest 255 293 4,600 -1,574 Descending Houston Center
12:48 26.4764 -97.5519 231° Southwest 256 295 4,000 -1,645 Descending Houston Center
12:48 26.4472 -97.5942 232° Southwest 254 292 2,900 -1,700 Descending Houston Center
12:49 26.4286 -97.6169 228° Southwest 253 291 2,300 -871 Descending Houston Center
12:49 26.3989 -97.6467 222° Southwest 244 281 2,000 -269 Descending Houston Center
12:50 26.3744 -97.6592 205° Southwest 212 244 2,000  Level Houston Center
12:50 26.3508 -97.6581 178° South 204 235 2,000 -295 Level Houston Center
12:51 26.3239 -97.6589 182° South 181 208 1,700 -774 Descending Houston Center
12:51 26.2983 -97.6578 178° South 167 192 1,200 -689 Descending Houston Center
12:52 26.2839 -97.6597 187° South 142 163 1,000 -581 Descending Houston Center
12:53 26.2628 -97.6586 177° South 132 152 600 -545 Descending Houston Center
12:54 26.2308 -97.6586 180° South 131 151 100 -484 Descending Houston Center

Login

Don't have an account? Register now (free) for customized features, flight alerts, and more!